Wetbulb
51.94 52.29 52.64 52.53 52.47 52.58 52.33 52.68 52.92 53.07 53.18 53.25 53.57 53.93 54.35 54.60 54.85 54.43 54.87 54.76 55.11 55.19 57.24 59.22 59.07 58.44 55.74 50.80 50.05 58.07 61.29 63.38 60.33 60.07 57.65 55.86 54.64 54.58 52.31 53.97 54.86 53.09 54.15 55.54 56.22 55.88 55.65
52.55 52.13 52.35 53.36 53.15 53.25 52.78 52.68 52.65 52.65 52.65 53.05 53.29 53.54 54.24 54.24 54.45 54.35 54.48 54.56 54.54 54.81 55.70 58.39 59.08 57.87 53.29 47.07 56.03 57.23 56.89 56.52 57.84 58.70 57.16 56.62 54.73 56.41 54.53 54.26 53.81 55.12 54.44 54.60 55.17 55.30 55.65
52.39 52.60 52.13 52.99 52.71 52.65 52.96 52.93 52.79 52.61 52.88 53.12 52.99 53.56 53.71 54.20 54.19 54.14 54.32 53.84 53.65 54.35 55.26 57.22 58.74 56.74 52.53 52.07 58.57 57.17 57.02 56.14 56.85 57.77 56.61 58.44 57.86 55.64 56.03 53.40 56.31 55.28 51.83 53.19 53.66 54.25 54.06
51.88 52.35 52.39 53.56 53.98 53.96 53.77 53.82 53.51 53.48 53.65 53.59 53.58 53.43 53.76 54.18 54.27 54.25 53.88 53.35 53.02 53.84 55.03 57.00 58.01 56.44 51.67 60.81 60.34 58.62 58.31 54.98 56.79 56.95 57.10 58.81 59.55 56.35 54.61 56.10 53.84 51.74 52.45 47.87 52.55 53.60 54.11
52.88 52.96 53.32 54.23 54.37 54.31 54.61 54.88 54.69 54.20 54.04 54.17 54.17 54.10 53.87 53.99 54.06 53.80 53.49 53.10 53.08 54.70 55.50 57.08 55.20 54.53 51.32 60.08 56.37 57.54 56.89 53.30 53.63 54.61 55.80 57.73 57.52 54.35 54.06 49.93 47.94 49.26 45.68 47.66 49.44 53.64 52.96
53.06 53.44 53.53 53.69 53.96 53.79 53.76 54.11 54.48 54.64 54.66 54.76 54.30 54.34 54.29 54.05 53.76 53.41 52.63 52.38 53.55 56.45 56.82 56.38 54.81 50.29 53.95 53.06 56.96 57.83 59.09 56.06 52.09 51.31 51.61 51.95 52.60 49.81 50.00 47.88 41.82 44.16 45.31 48.03 48.06 51.34 52.50
52.96 53.31 53.30 53.48 53.04 52.90 52.94 53.07 54.18 54.11 54.41 54.49 54.72 54.47 54.35 53.90 53.61 53.29 51.87 53.19 52.48 50.50 51.15 48.84 50.81 50.32 52.07 56.56 56.85 54.31 55.64 54.13 52.52 49.65 45.25 48.88 45.91 44.21 46.70 49.00 48.76 48.32 47.55 46.67 49.56 52.00 51.21
52.44 52.35 52.28 52.33 52.11 51.95 52.12 52.56 53.63 53.70 54.01 54.33 54.27 54.47 54.21 54.02 53.65 53.43 52.12 49.74 50.87 49.84 42.76 50.56 50.43 52.49 54.86 55.66 50.38 52.65 54.97 49.55 48.97 43.98 46.39 45.35 43.30 48.07 49.43 49.05 48.56 48.15 46.66 46.69 49.96 51.51 51.14
51.88 52.07 52.01 51.76 51.89 51.89 52.06 52.30 53.22 53.19 53.31 53.51 53.70 54.11 53.88 53.76 53.49 52.34 51.53 50.99 55.02 53.79 42.30 43.71 48.20 48.34 51.09 54.27 50.51 50.23 51.78 49.44 47.31 44.81 44.98 42.76 45.62 49.07 48.18 47.34 46.45 47.01 46.66 47.53 47.06 49.85 50.93
51.69 51.71 51.38 51.13 51.00 51.28 51.64 51.97 52.61 52.81 52.93 53.02 52.96 53.20 53.12 53.26 48.78 51.71 50.11 53.99 54.11 52.81 37.81 39.40 43.21 47.48 49.77 51.41 47.42 55.20 55.13 49.97 46.19 43.40 45.71 45.00 47.77 46.69 46.54 45.73 47.48 44.67 49.15 48.37 47.59 46.45 42.66
51.45 51.04 50.78 50.53 50.63 51.31 51.52 51.35 51.56 52.12 52.68 52.81 52.77 52.85 52.78 51.81 51.99 49.45 51.19 54.54 55.10 52.06 25.24 42.37 43.76 53.17 51.38 47.73 48.48 49.70 55.52 51.54 44.43 45.29 45.09 43.03 45.13 45.20 44.50 45.73 48.18 45.80 49.40 48.00 47.61 46.04 45.83
50.23 49.83 49.27 49.44 49.82 50.30 50.71 51.13 51.37 51.72 52.17 52.26 52.32 52.59 52.37 51.58 52.01 53.65 54.76 54.93 53.02 37.87 24.69 38.20 45.12 44.69 45.74 46.71 47.69 50.20 50.97 53.04 51.43 45.67 46.61 45.82 50.28 48.80 47.44 48.44 48.35 49.19 47.69 47.89 47.56 45.28 39.66
49.65 49.24 48.83 48.70 49.20 49.68 49.72 50.39 50.64 51.08 51.41 51.60 51.86 51.81 51.21 53.66 48.17 54.30 55.26 50.01 36.10 28.61 40.21 37.38 40.32 44.70 44.36 43.61 45.16 46.52 45.35 45.53 42.49 38.65 39.06 43.97 44.96 48.94 50.16 46.36 49.08 47.21 44.13 37.54 37.34 37.92 37.05
49.67 49.76 48.98 48.98 49.08 49.69 49.82 49.87 50.15 50.68 50.82 50.88 50.87 51.00 50.88 51.36 54.23 55.70 52.32 40.58 27.95 34.49 35.63 41.88 41.17 41.93 39.74 42.70 43.78 44.29 43.81 41.34 45.89 44.07 41.21 38.50 37.10 45.24 48.44 46.28 44.65 44.81 44.19 37.19 31.74 34.64 38.99
49.20 49.05 49.03 48.97 49.05 49.41 49.28 49.57 49.95 50.22 50.48 50.54 50.38 49.53 49.44 52.38 55.27 54.53 44.14 30.06 32.17 35.05 39.16 38.50 39.53 36.75 37.33 40.86 41.92 42.22 42.36 42.30 44.69 46.07 39.20 38.13 38.81 47.81 48.90 49.34 47.63 44.31 40.28 46.53 40.48 42.79 38.26
48.75 49.21 49.02 48.69 48.88 49.06 49.20 49.21 49.53 49.75 50.18 50.30 47.41 46.78 46.97 54.11 55.64 49.26 37.34 31.97 35.60 40.61 41.05 40.04 34.53 37.57 34.44 37.10 37.59 38.30 39.99 45.00 44.36 47.27 48.30 44.31 37.35 45.09 47.03 49.39 48.57 45.86 47.53 38.62 39.78 31.08 30.60
49.19 49.00 48.63 48.16 48.52 48.50 48.74 48.87 49.20 49.49 50.04 50.17 47.13 40.46 48.44 54.63 52.25 41.99 31.76 32.18 37.47 41.77 41.85 38.54 36.78 36.11 36.53 36.29 37.99 37.36 38.14 41.96 44.72 45.01 47.13 45.80 41.44 40.83 44.99 43.07 42.85 43.95 42.39 42.96 42.22 38.45 32.64
48.63 48.40 48.35 48.17 48.14 48.39 48.39 48.46 48.87 49.15 49.61 48.21 44.55 34.38 48.95 52.94 37.98 37.42 32.43 35.77 39.52 39.83 42.86 40.25 40.25 38.43 36.48 37.52 36.53 37.03 37.37 40.45 46.57 47.21 41.90 44.54 40.48 36.56 39.29 47.02 48.32 46.44 44.36 44.07 36.27 35.09 38.20
48.36 48.16 48.12 47.77 47.25 47.94 48.21 48.47 48.77 48.79 49.10 47.44 39.54 39.87 48.33 48.67 31.83 32.39 35.92 35.88 38.22 37.48 39.21 38.94 38.01 40.04 40.38 37.61 34.33 37.38 38.87 43.16 44.72 45.03 41.53 43.27 38.78 34.34 36.62 41.63 45.83 43.18 45.14 45.99 43.30 42.98 38.05
48.17 47.95 48.05 47.21 46.82 47.30 47.59 47.69 48.08 48.66 49.04 47.27 39.80 31.95 37.45 42.78 41.54 36.27 33.22 34.14 34.10 39.88 38.90 40.00 39.78 40.96 39.09 38.20 39.97 36.75 37.40 41.82 44.45 43.86 45.19 45.13 38.33 35.43 32.05 36.59 41.02 39.20 43.40 45.20 43.85 37.45 38.46
47.61 47.58 47.44 47.58 47.38 47.30 47.25 47.30 47.53 47.87 48.49 46.18 39.08 32.72 39.10 32.18 34.23 36.62 37.12 35.21 33.64 33.93 39.40 40.51 38.20 38.90 37.38 34.50 36.92 36.72 39.07 40.29 42.76 44.15 43.83 42.99 35.83 37.26 38.39 38.78 40.93 40.61 40.53 42.19 42.60 43.28 39.38
47.26 47.19 47.11 47.02 47.04 47.23 47.19 47.19 47.21 47.47 47.91 42.07 34.25 33.43 38.40 38.25 39.47 35.55 35.20 34.95 34.50 35.98 37.20 36.53 36.14 38.37 38.66 35.09 37.58 35.83 38.41 39.03 39.35 42.11 41.02 43.25 34.41 37.56 34.18 38.35 37.61 36.78 41.08 42.02 42.54 43.79 44.47
46.79 46.81 46.76 46.73 46.87 47.05 46.97 46.99 47.05 47.17 47.24 40.90 41.39 42.46 39.25 37.29 37.60 36.04 35.27 35.38 35.96 38.56 40.08 41.08 40.07 38.64 37.28 39.23 42.80 44.04 44.46 43.11 42.06 38.98 36.29 37.27 36.45 33.91 29.32 35.47 34.90 28.55 37.73 41.02 42.53 44.65 44.13
46.68 46.64 46.65 46.59 46.61 46.61 46.82 46.91 47.07 47.26 47.25 44.53 42.88 41.66 35.71 31.18 35.84 35.92 37.36 38.30 37.00 38.03 37.41 40.22 41.61 38.76 42.22 46.52 44.87 44.28 42.92 41.40 42.02 40.72 41.41 35.69 34.82 34.26 29.31 32.30 23.15 35.16 41.74 42.66 42.82 44.04 46.43
46.30 46.27 46.24 46.12 46.10 46.26 46.50 46.62 46.67 47.01 47.08 45.32 43.64 40.82 37.24 30.97 35.20 35.77 36.27 37.69 39.56 40.94 38.82 40.33 42.66 44.96 46.89 43.18 36.18 32.60 33.70 33.97 35.35 39.74 39.40 41.00 36.48 31.80 27.58 28.07 31.66 34.39 38.90 39.58 39.85 41.47 46.45
45.75 45.80 45.12 45.53 45.85 46.17 46.19 46.22 46.31 46.64 47.15 45.57 44.04 44.89 39.49 33.26 32.74 37.54 36.33 38.23 35.77 37.06 38.23 40.37 45.44 47.84 44.75 39.02 33.76 28.03 24.80 29.12 30.08 33.70 40.63 40.19 39.17 33.80 31.33 24.91 21.48 33.33 39.40 42.38 43.92 31.89 44.40
45.25 44.94 44.59 45.25 45.49 45.49 45.82 46.01 46.20 46.66 47.01 46.04 44.66 46.93 41.34 33.43 37.47 39.03 34.27 35.51 39.11 38.15 36.85 40.06 41.66 41.02 44.23 36.39 31.30 29.44 28.24 32.93 27.50 27.88 29.31 31.61 33.27 29.34 29.58 26.88 30.98 39.23 41.98 45.55 32.31 35.02 47.29
44.81 44.69 45.00 44.99 45.06 45.42 45.79 46.07 46.28 47.01 47.45 46.22 44.54 46.97 42.00 35.90 37.48 40.96 41.42 38.61 40.08 38.96 35.41 39.08 38.09 38.80 37.35 32.44 31.75 31.98 30.02 31.49 31.25 33.72 32.70 30.59 28.85 28.93 31.43 27.95 25.11 41.94 40.94 35.08 41.39 47.19 48.87
44.38 44.66 44.60 44.57 44.67 45.19 45.40 45.75 46.72 47.47 48.47 47.92 43.29 47.20 46.85 40.35 38.23 43.30 44.16 46.09 44.25 43.20 40.28 41.52 38.76 39.01 38.73 35.09 35.08 37.11 32.67 34.94 32.43 27.40 37.53 28.93 33.88 32.32 34.10 33.57 42.50 44.80 44.20 46.02 46.41 48.10 49.17
MSLP
1017.77 1017.91 1018.10 1018.25 1018.42 1018.50 1018.40 1018.53 1018.26 1018.51 1018.60 1018.27 1018.39 1018.06 1017.91 1018.08 1018.04 1017.67 1017.35 1016.86 1017.19 1016.98 1016.50 1016.01 1016.13 1015.76 1014.48 1013.13 1010.24 1009.26 1009.72 1009.30 1009.35 1008.88 1008.39 1007.70 1007.08 1006.30 1005.45 1004.81 1004.00 1003.39 1003.11 1002.91 1002.59 1002.61 1002.66
1017.65 1017.74 1017.91 1018.03 1018.25 1018.29 1018.26 1018.21 1018.29 1018.46 1018.57 1018.44 1018.17 1018.16 1018.43 1017.87 1018.22 1017.85 1017.42 1017.32 1016.92 1016.81 1016.69 1016.32 1016.05 1015.87 1014.61 1012.16 1009.16 1008.80 1009.07 1009.19 1008.79 1008.03 1007.94 1007.41 1006.66 1006.17 1005.45 1004.80 1004.20 1003.65 1003.22 1002.98 1002.75 1002.63 1002.64
1017.36 1017.35 1017.59 1017.93 1017.86 1018.20 1018.33 1018.06 1018.29 1018.46 1018.60 1018.37 1018.22 1018.55 1018.38 1017.95 1018.10 1017.72 1017.49 1017.31 1017.15 1016.68 1016.71 1016.28 1015.85 1015.56 1013.87 1010.70 1009.08 1009.06 1009.01 1009.06 1008.94 1008.51 1007.77 1007.20 1006.77 1006.39 1005.96 1005.41 1004.81 1004.18 1003.81 1003.40 1003.04 1002.63 1002.41
1016.91 1017.15 1017.45 1017.75 1017.68 1017.90 1018.09 1017.83 1018.11 1018.27 1018.45 1018.51 1018.36 1018.15 1018.17 1018.21 1017.90 1017.80 1017.41 1017.13 1017.01 1016.85 1016.60 1016.03 1015.87 1015.23 1012.22 1009.50 1009.39 1009.50 1009.28 1009.11 1009.14 1008.80 1008.30 1007.85 1007.55 1007.17 1006.80 1006.09 1005.10 1004.48 1003.92 1003.11 1002.57 1002.21 1001.94
1017.03 1017.12 1017.17 1017.28 1017.40 1017.73 1017.90 1017.78 1018.06 1018.33 1018.20 1018.28 1018.06 1018.09 1018.22 1018.32 1018.01 1017.72 1017.62 1016.92 1016.88 1016.53 1016.35 1015.80 1015.84 1014.71 1011.05 1009.15 1009.31 1009.16 1008.89 1008.59 1008.73 1008.46 1008.22 1008.02 1007.77 1007.58 1007.18 1006.43 1005.57 1004.51 1003.47 1002.66 1001.75 1001.29 1000.89
1016.57 1016.73 1016.79 1016.86 1017.15 1017.55 1017.66 1017.88 1018.02 1018.05 1018.04 1018.09 1018.08 1018.14 1018.29 1018.34 1017.92 1017.65 1017.56 1016.61 1016.51 1016.27 1015.98 1015.63 1015.15 1014.44 1010.61 1009.05 1008.34 1007.87 1008.06 1008.66 1008.35 1008.22 1008.05 1007.91 1007.76 1007.10 1006.54 1005.91 1004.30 1004.12 1003.14 1002.16 1001.19 1000.79 999.97
1016.22 1016.39 1016.62 1016.86 1017.13 1017.44 1017.59 1017.60 1017.60 1017.43 1017.56 1017.91 1017.98 1018.06 1018.15 1018.38 1017.91 1017.83 1017.31 1015.72 1016.54 1015.98 1015.44 1013.77 1012.93 1011.55 1009.18 1009.01 1008.75 1008.05 1007.99 1007.96 1008.28 1007.96 1007.01 1007.41 1007.35 1005.64 1004.96 1004.79 1004.57 1003.66 1002.64 1001.58 1000.52 999.92 999.53
1015.94 1016.19 1016.48 1016.77 1016.95 1017.05 1017.09 1017.18 1017.30 1017.45 1017.62 1017.69 1017.86 1017.92 1017.83 1017.99 1017.97 1017.79 1017.22 1015.65 1015.28 1015.75 1014.17 1013.04 1012.21 1011.71 1010.12 1010.36 1009.45 1008.00 1007.90 1007.78 1007.52 1006.77 1007.19 1006.94 1005.19 1004.27 1004.55 1004.31 1003.62 1003.18 1002.45 1001.38 1001.08 1000.14 999.60
1015.92 1016.12 1016.40 1016.66 1016.84 1016.98 1017.09 1017.18 1017.33 1017.54 1017.71 1017.77 1017.86 1018.07 1018.38 1018.26 1017.90 1017.23 1016.28 1015.30 1015.07 1015.03 1013.69 1010.41 1009.70 1009.68 1009.55 1009.96 1008.87 1008.11 1007.74 1007.68 1007.02 1006.94 1006.19 1005.45 1003.18 1004.55 1004.05 1003.55 1003.02 1002.29 1001.54 1001.25 1001.17 1000.87 1000.14
1015.77 1016.03 1016.29 1016.51 1016.71 1016.88 1017.02 1017.15 1017.32 1017.49 1017.66 1017.83 1018.03 1018.23 1018.26 1018.00 1018.08 1016.27 1015.36 1014.90 1014.84 1015.02 1013.30 1008.84 1007.59 1006.97 1007.96 1009.21 1008.34 1007.84 1007.56 1007.72 1007.13 1006.38 1005.55 1004.64 1004.17 1003.58 1003.04 1002.71 1002.44 1001.31 1001.50 1001.38 1001.16 1001.06 1000.29
1015.61 1015.86 1016.12 1016.37 1016.63 1016.83 1016.98 1017.10 1017.20 1017.35 1017.51 1017.70 1017.87 1017.92 1017.97 1017.95 1017.16 1015.74 1015.11 1014.68 1014.81 1015.22 1012.32 1006.50 1005.89 1005.72 1006.32 1007.38 1006.49 1006.56 1006.76 1007.02 1006.42 1005.99 1005.93 1004.28 1003.94 1003.24 1002.23 1001.66 1001.49 1000.80 1001.78 1001.45 1001.03 1000.74 1000.93
1015.35 1015.72 1016.02 1016.25 1016.50 1016.72 1016.86 1016.97 1017.08 1017.16 1017.30 1017.45 1017.64 1017.82 1018.01 1018.03 1017.47 1016.28 1015.46 1015.08 1015.21 1014.50 1010.42 1006.08 1005.07 1005.55 1006.02 1007.34 1007.18 1006.77 1007.20 1007.52 1006.98 1007.00 1006.10 1004.54 1003.63 1002.84 1001.63 1001.61 1001.47 1001.45 1001.16 1000.94 1001.09 1000.95 1000.15
1015.11 1015.48 1015.78 1015.99 1016.21 1016.39 1016.58 1016.72 1016.83 1016.98 1017.12 1017.29 1017.52 1017.75 1018.00 1017.24 1016.44 1016.24 1015.84 1015.49 1015.09 1012.77 1008.40 1005.93 1005.13 1005.61 1006.05 1006.13 1006.14 1006.27 1006.49 1006.62 1007.24 1006.94 1005.88 1004.71 1003.24 1002.53 1002.71 1002.17 1001.51 1001.35 1001.31 1000.63 1000.82 1000.37 998.79
1014.87 1015.18 1015.50 1015.76 1015.98 1016.14 1016.26 1016.40 1016.47 1016.64 1016.85 1017.04 1017.27 1017.51 1017.27 1016.86 1016.60 1016.51 1016.41 1015.98 1013.83 1009.81 1008.58 1005.28 1005.27 1005.14 1004.86 1005.16 1005.20 1005.43 1005.53 1005.86 1006.76 1006.67 1005.61 1004.46 1002.87 1002.40 1001.73 1001.22 1000.98 1001.14 1000.74 1000.72 1000.31 1000.05 999.40
1014.60 1014.85 1015.19 1015.47 1015.67 1015.85 1015.95 1016.08 1016.22 1016.34 1016.51 1016.75 1017.05 1016.93 1016.66 1016.28 1016.55 1016.85 1016.87 1014.76 1011.52 1010.39 1009.20 1007.80 1006.88 1006.03 1005.36 1004.64 1004.73 1004.73 1004.57 1004.72 1004.88 1005.44 1005.78 1004.47 1002.31 1001.97 1000.98 1001.33 1001.94 1000.34 1001.01 1001.05 1001.22 1001.70 1001.22
1014.25 1014.56 1014.85 1015.20 1015.38 1015.53 1015.68 1015.81 1015.93 1016.04 1016.21 1016.46 1016.47 1016.26 1015.72 1015.58 1016.04 1016.88 1016.06 1012.54 1011.88 1010.81 1009.45 1008.54 1007.39 1006.67 1005.66 1005.07 1004.63 1004.32 1003.99 1004.54 1004.40 1004.72 1004.46 1004.05 1003.07 1002.36 1000.96 1000.73 1000.43 1000.63 1001.13 1001.49 1001.47 1003.06 1002.33
1013.83 1014.19 1014.48 1014.82 1015.07 1015.23 1015.43 1015.54 1015.66 1015.78 1015.96 1016.23 1016.42 1015.85 1014.60 1014.89 1015.95 1016.16 1013.31 1012.90 1012.33 1011.60 1010.53 1009.53 1008.33 1007.45 1006.55 1005.73 1005.20 1004.30 1003.66 1003.40 1003.23 1003.36 1003.91 1003.97 1003.89 1002.69 1002.83 1000.52 1000.57 1000.70 1000.33 1001.03 1002.07 1004.20 1002.91
1013.39 1013.72 1014.11 1014.39 1014.65 1014.84 1015.05 1015.20 1015.35 1015.58 1015.75 1016.13 1015.76 1015.25 1014.27 1014.43 1015.19 1014.10 1013.24 1013.41 1013.00 1011.45 1010.26 1010.18 1009.48 1008.57 1007.64 1006.59 1005.69 1004.72 1004.06 1003.47 1003.46 1003.75 1004.45 1004.65 1005.06 1003.60 1001.97 1001.51 1000.40 1000.19 999.80 1000.21 1000.70 1001.95 1001.59
1012.97 1013.31 1013.62 1013.93 1014.11 1014.33 1014.53 1014.72 1014.96 1015.22 1015.49 1015.34 1015.25 1015.02 1014.41 1014.40 1013.50 1013.35 1013.40 1013.07 1012.60 1012.01 1010.95 1010.30 1009.06 1008.63 1008.22 1006.99 1006.29 1005.49 1004.73 1004.18 1003.85 1004.25 1004.92 1006.05 1005.94 1005.23 1002.44 1002.14 1000.89 999.80 999.24 999.63 1001.09 999.98 999.81
1012.54 1012.88 1013.15 1013.41 1013.64 1013.91 1014.09 1014.29 1014.48 1014.78 1015.05 1015.58 1014.97 1014.77 1014.62 1014.02 1012.99 1013.09 1013.13 1012.04 1011.60 1011.61 1010.87 1010.57 1008.99 1008.57 1007.50 1006.53 1006.48 1005.73 1005.28 1004.57 1004.32 1004.17 1004.74 1005.86 1006.90 1006.46 1005.19 1003.31 1002.30 1000.77 999.29 998.75 999.17 999.20 998.55
1011.98 1012.34 1012.60 1012.89 1013.20 1013.41 1013.65 1013.87 1013.98 1014.32 1014.57 1015.25 1014.68 1013.91 1013.21 1012.60 1012.43 1012.21 1011.91 1011.28 1010.72 1010.14 1010.26 1009.94 1008.85 1007.80 1007.62 1007.16 1006.25 1005.55 1004.89 1004.43 1004.37 1004.41 1004.49 1005.16 1005.27 1006.18 1005.62 1004.79 1003.16 1001.35 1000.23 998.88 997.18 997.49 996.87
1011.39 1011.71 1012.04 1012.29 1012.52 1012.83 1013.08 1013.29 1013.56 1013.83 1014.15 1014.64 1013.92 1013.61 1013.31 1011.86 1011.17 1011.63 1010.95 1009.63 1009.56 1009.22 1008.98 1007.70 1007.59 1007.61 1007.66 1007.00 1005.70 1005.46 1005.65 1005.51 1004.96 1004.89 1004.77 1005.47 1005.61 1005.57 1005.48 1005.10 1003.79 1002.10 1000.72 998.60 997.24 996.62 995.96
1010.79 1011.09 1011.36 1011.61 1011.84 1012.07 1012.34 1012.61 1012.80 1013.00 1013.58 1013.27 1013.39 1013.14 1012.72 1010.84 1010.36 1009.86 1008.93 1008.61 1007.88 1008.48 1007.34 1006.91 1006.66 1006.39 1006.45 1005.17 1005.80 1006.17 1006.04 1005.97 1005.95 1006.36 1007.27 1007.38 1006.95 1006.89 1006.05 1005.41 1004.48 1003.09 1000.54 999.34 997.00 995.45 995.20
1010.11 1010.41 1010.68 1010.90 1011.06 1011.24 1011.46 1011.70 1011.94 1012.10 1012.37 1012.44 1012.25 1012.48 1011.96 1009.82 1009.56 1008.18 1007.94 1007.61 1007.24 1006.86 1005.94 1005.96 1006.02 1005.78 1004.11 1005.98 1006.39 1006.47 1006.47 1006.43 1006.30 1006.08 1007.08 1007.56 1007.86 1007.13 1006.56 1006.23 1004.04 1001.56 1000.56 999.95 997.33 995.01 994.35
1009.41 1009.65 1009.85 1010.03 1010.23 1010.38 1010.54 1010.70 1010.80 1010.94 1011.14 1011.36 1011.59 1011.52 1010.70 1009.08 1008.60 1007.54 1007.52 1006.49 1006.16 1005.85 1005.70 1005.42 1004.53 1004.55 1005.42 1005.82 1006.24 1006.73 1006.48 1006.31 1005.28 1005.16 1005.36 1006.20 1006.93 1006.39 1006.30 1004.45 1002.43 1000.49 999.90 998.70 997.32 995.16 994.38
1008.65 1008.90 1009.11 1009.22 1009.36 1009.44 1009.48 1009.51 1009.49 1009.58 1009.76 1010.10 1009.94 1010.47 1010.43 1008.43 1005.39 1006.82 1006.89 1006.31 1005.43 1005.07 1005.16 1004.08 1004.27 1005.40 1005.69 1005.88 1006.67 1005.86 1005.71 1005.96 1004.86 1003.66 1003.39 1004.56 1005.69 1005.93 1004.83 1004.08 1001.86 999.03 998.86 998.87 997.34 996.41 995.14
1008.00 1008.18 1008.28 1008.31 1008.33 1008.32 1008.21 1008.10 1008.03 1008.00 1008.10 1008.48 1007.62 1008.85 1008.98 1007.46 1005.87 1006.51 1005.26 1005.10 1005.73 1005.20 1004.40 1003.90 1003.85 1004.88 1005.22 1005.49 1006.11 1005.52 1005.23 1005.03 1004.51 1003.64 1003.49 1003.69 1003.65 1003.90 1003.25 1002.81 1000.50 997.79 997.86 997.62 997.23 995.34 994.52
1007.28 1007.38 1007.40 1007.34 1007.22 1007.03 1006.89 1006.64 1006.32 1005.96 1006.01 1006.60 1006.02 1006.83 1007.30 1006.04 1004.46 1005.54 1005.13 1004.79 1004.62 1004.52 1004.13 1002.55 1004.79 1004.23 1004.93 1005.11 1005.59 1004.79 1004.71 1004.04 1003.45 1002.83 1002.18 1002.41 1002.53 1002.37 1002.64 1001.19 998.93 997.38 997.03 997.74 996.28 995.20 993.97
1006.54 1006.51 1006.48 1006.34 1006.07 1005.84 1005.56 1005.09 1004.55 1004.15 1003.99 1004.51 1004.36 1004.77 1005.34 1005.50 1003.49 1003.84 1003.58 1003.07 1003.21 1003.43 1003.40 1003.39 1003.39 1003.31 1004.23 1004.24 1004.38 1003.88 1003.44 1002.70 1002.26 1001.51 1000.71 1000.79 1000.76 1000.68 1000.16 997.80 997.13 996.89 996.49 996.35 995.98 995.41 994.67
Wind_Speed
7 5 4 6 5 5 2 2 1 2 3 4 6 7 7 8 9 10 9 9 11 12 12 10 11 12 9 9 13 7 6 4 9 8 12 14 15 14 16 15 16 15 13 16 9 10 8
6 6 5 8 7 6 4 2 2 2 3 4 4 6 5 6 8 9 9 10 11 11 11 9 9 11 7 14 9 7 3 8 12 7 11 13 14 16 17 20 16 15 11 13 15 12 12
9 9 7 8 6 6 5 4 3 4 4 4 4 5 6 6 8 10 9 10 10 10 11 11 7 7 13 20 9 6 2 7 12 9 10 13 12 16 9 15 18 18 18 16 15 16 16
9 10 10 10 7 6 6 5 5 5 5 5 5 5 6 7 8 10 11 10 12 12 10 9 7 8 12 9 10 19 19 17 13 13 12 12 10 11 15 15 20 16 16 17 18 20 20
11 11 12 10 8 8 7 6 7 7 6 6 5 5 5 6 7 10 13 13 14 10 7 4 5 7 12 2 12 16 14 16 18 14 13 11 7 13 14 16 16 15 17 21 22 21 20
11 11 12 12 10 8 5 6 6 6 5 5 5 5 5 6 8 10 14 15 13 4 2 3 4 8 11 12 12 13 14 18 14 14 14 16 9 12 15 15 16 16 20 21 22 20 23
12 10 8 8 6 4 4 3 4 5 5 6 5 5 4 6 8 10 12 6 5 7 4 8 3 12 3 2 9 11 11 13 17 16 21 15 13 21 24 21 22 21 21 23 23 21 22
6 5 5 4 3 3 3 4 3 4 5 6 6 5 5 8 9 8 8 8 6 1 10 18 23 20 23 13 11 11 12 14 19 24 21 18 24 26 24 22 23 24 25 27 23 25 22
5 6 5 4 4 5 5 6 5 5 5 5 5 5 5 8 8 7 8 8 2 6 8 12 22 18 26 15 14 16 13 12 14 22 25 25 29 22 24 23 25 25 25 20 23 21 23
6 5 5 5 5 5 6 6 6 4 4 5 5 5 5 3 3 8 7 4 6 2 6 9 10 9 20 18 20 21 20 12 10 18 25 25 27 27 25 26 25 25 23 24 24 21 18
9 7 6 5 5 4 4 5 7 6 6 5 5 5 5 12 9 6 5 1 0 3 7 4 16 7 11 23 7 15 24 19 23 18 11 18 24 27 29 27 24 26 20 25 24 20 21
8 7 5 4 3 4 6 7 7 7 7 7 7 6 5 6 10 11 6 5 2 4 14 6 6 10 10 19 18 10 11 22 18 24 23 26 25 28 29 23 26 24 24 23 22 17 19
8 7 6 5 5 5 6 7 8 9 8 8 7 8 8 7 9 9 6 6 5 10 4 5 10 8 10 11 16 18 15 17 17 18 22 29 31 29 22 26 26 27 23 18 17 18 20
9 8 8 8 7 6 5 6 9 9 9 8 7 8 10 11 11 8 5 5 14 5 16 10 2 10 13 13 14 14 17 17 18 24 18 19 23 32 22 31 24 22 23 18 26 20 20
10 9 9 8 7 7 6 6 7 7 8 9 6 7 9 10 10 5 7 15 8 11 14 12 15 19 19 19 14 15 18 18 19 25 25 19 32 20 28 28 20 29 26 18 21 20 18
11 10 8 6 8 7 6 7 7 8 8 7 6 6 11 13 12 7 10 27 14 17 19 19 19 14 18 20 22 21 17 12 18 20 22 28 28 28 29 20 31 32 19 18 7 11 26
10 9 8 7 7 7 7 8 8 8 7 7 5 4 6 14 11 8 18 12 21 27 26 20 20 23 24 24 21 23 23 22 22 19 21 23 22 29 26 30 22 21 23 24 9 15 6
10 9 9 9 9 9 9 8 9 7 7 5 3 5 6 13 11 6 17 10 12 22 18 25 27 24 28 25 25 25 25 24 9 15 19 18 11 20 28 31 29 28 25 28 16 25 23
11 10 10 10 10 9 9 8 8 9 9 3 3 3 7 11 14 15 8 23 14 20 25 26 30 25 25 27 26 25 25 25 25 15 6 6 6 5 15 19 25 28 28 20 20 20 22
12 12 12 12 11 11 10 10 9 9 9 5 3 4 4 9 11 20 19 18 21 24 30 30 30 25 28 26 23 24 28 26 24 24 16 6 8 10 9 18 21 19 27 24 22 18 22
12 12 12 13 13 13 13 12 12 11 9 5 4 3 5 7 13 20 23 19 27 27 27 28 27 33 29 25 23 24 26 25 24 25 23 17 21 19 22 28 29 28 27 31 26 23 27
13 12 12 13 13 14 14 14 15 14 11 6 6 4 4 11 16 22 22 26 28 28 26 28 30 29 26 27 28 24 25 21 22 21 16 16 21 18 26 24 24 28 31 30 29 23 31
12 12 13 14 14 15 15 16 17 17 15 5 5 3 5 11 18 21 19 27 34 28 28 32 30 24 27 32 26 22 20 20 17 15 17 21 15 14 11 18 17 14 23 31 32 28 25
13 14 14 15 15 16 17 18 20 21 21 9 4 4 6 13 18 19 28 28 30 32 33 28 26 26 32 19 20 20 22 21 26 20 14 14 18 8 10 14 21 13 17 23 32 35 29
13 14 15 15 16 17 18 19 20 22 23 12 9 7 5 17 15 28 31 29 26 26 27 26 28 26 17 16 14 11 9 11 23 26 24 19 12 5 7 15 18 27 22 20 20 29 32
12 13 15 16 17 18 19 21 22 23 24 15 12 11 9 6 23 29 26 27 23 20 19 27 24 16 18 10 8 12 9 6 5 8 22 23 17 18 6 13 16 28 22 26 24 20 23
12 14 16 17 18 20 21 23 24 25 25 17 8 20 10 17 18 18 25 20 20 21 18 18 18 17 14 13 15 7 5 8 14 16 13 12 8 18 17 13 14 26 15 15 13 25 15
13 15 16 18 19 20 22 24 26 27 28 19 11 15 15 12 22 23 27 24 17 16 16 17 11 11 7 10 11 12 8 8 14 18 19 18 17 14 9 12 19 15 13 16 16 22 22
15 15 17 19 20 21 23 25 25 25 24 24 11 13 15 13 12 14 31 28 31 34 19 14 13 9 8 6 6 7 11 10 14 16 20 18 17 15 17 13 16 14 15 19 21 22 13
Wind_Direction
244 255 292 244 224 238 238 285 31 21 359 11 2 12 16 4 357 360 359 5 351 348 342 335 316 315 320 240 255 127 243 232 259 222 233 238 249 248 255 262 264 263 266 284 273 280 268
237 246 263 248 239 219 232 252 304 324 330 346 360 358 348 4 345 348 351 345 345 340 335 322 309 316 253 253 259 287 343 308 282 243 249 243 253 259 279 278 278 281 275 276 278 254 262
238 249 243 244 237 234 245 250 257 288 304 319 334 332 344 348 337 337 334 333 326 326 321 317 297 289 261 246 291 308 286 276 288 295 288 267 261 271 268 260 259 261 268 266 255 265 252
247 256 246 246 241 240 242 247 263 270 283 292 309 330 338 335 332 322 319 315 311 306 304 303 295 278 258 272 261 252 259 265 264 257 268 285 318 304 271 277 290 269 262 258 253 248 237
254 254 250 250 246 241 243 246 246 257 264 284 297 312 320 323 320 313 306 304 298 289 288 265 258 227 266 114 234 246 245 245 243 256 245 257 249 249 258 239 256 251 255 256 256 242 246
249 248 242 241 235 223 224 239 246 258 264 264 271 287 298 314 313 307 303 294 304 201 174 200 262 275 244 241 232 228 233 230 232 245 236 231 232 244 224 239 235 234 247 250 250 262 276
253 245 220 197 176 183 211 235 256 282 283 277 270 272 286 294 295 307 316 281 212 181 190 237 154 242 280 275 311 252 257 225 224 237 226 214 220 230 225 226 243 264 262 264 264 252 234
201 194 190 193 185 223 254 271 284 287 290 285 283 279 298 292 298 313 291 277 58 292 292 221 252 254 267 300 288 267 240 215 203 224 222 229 221 228 236 244 243 239 247 257 273 280 286
216 201 194 211 232 245 253 259 271 277 275 281 289 281 262 273 310 290 263 316 171 243 269 266 222 235 224 222 244 250 213 225 231 227 225 221 236 225 241 242 244 249 250 252 257 267 277
222 209 211 227 244 254 261 265 270 267 272 277 276 271 244 251 305 258 261 239 242 304 279 262 202 250 214 225 268 226 249 212 208 241 229 238 242 245 240 231 243 249 246 254 258 262 258
220 206 204 216 235 250 257 261 265 263 262 263 265 262 249 213 332 248 349 184 169 235 308 158 191 174 174 190 358 189 214 225 232 230 226 231 229 245 244 249 240 243 254 268 273 250 259
190 189 204 216 239 257 259 254 250 250 251 252 250 245 244 236 253 268 314 252 221 227 245 238 147 186 175 202 254 283 198 232 259 246 255 254 247 237 244 247 249 264 262 246 254 259 250
193 205 221 235 256 267 276 266 256 248 242 238 236 233 232 229 229 224 256 225 218 222 274 219 180 172 204 228 228 228 235 214 221 235 243 249 247 246 250 263 260 245 250 255 234 234 242
202 213 233 241 252 258 267 277 262 252 247 244 227 226 225 240 249 298 237 222 223 237 229 301 99 284 240 229 229 243 218 230 225 242 263 238 249 238 234 233 246 250 237 233 246 237 250
213 215 228 233 238 249 266 281 276 273 249 239 232 228 230 214 239 224 214 224 222 221 274 271 281 279 273 276 237 246 246 237 243 210 245 250 261 261 227 238 235 250 252 252 274 257 272
217 216 213 234 236 238 251 268 273 274 255 232 237 227 230 217 199 202 228 230 219 249 287 294 278 278 279 274 268 257 248 223 245 254 249 246 259 259 273 252 224 233 239 252 223 243 243
218 216 216 230 239 237 251 263 268 270 250 235 225 225 232 212 178 212 231 227 240 254 279 279 272 274 276 276 275 272 270 265 249 240 260 253 241 264 267 259 256 232 235 237 188 220 255
214 212 222 228 237 239 245 254 259 258 243 233 233 222 241 173 210 218 233 231 249 257 257 243 268 270 274 280 278 274 273 276 273 276 290 313 318 270 246 255 263 263 264 229 214 216 218
213 219 223 231 239 240 245 250 252 250 220 228 231 209 266 188 221 226 242 240 241 241 246 248 259 250 263 271 273 274 278 281 291 265 173 317 322 284 287 249 258 259 252 252 285 225 227
216 221 226 232 239 241 243 247 250 243 235 223 245 214 191 223 234 229 231 237 239 235 248 254 267 262 264 263 255 264 270 270 280 280 286 173 210 244 258 288 298 283 270 243 226 242 232
218 224 229 230 234 238 242 247 251 250 234 214 206 220 203 198 220 229 234 235 243 245 240 242 254 250 255 268 267 266 256 265 261 266 274 272 280 275 291 300 293 267 265 276 243 231 249
223 227 231 234 237 241 243 243 246 245 233 225 227 174 232 245 220 221 235 235 245 242 246 242 237 247 255 259 253 260 268 267 279 292 296 284 271 300 286 276 288 295 286 272 270 258 249
227 232 237 240 240 242 243 242 241 241 222 226 190 241 274 232 240 242 218 235 243 248 244 248 256 255 244 248 259 272 268 277 287 297 292 301 279 284 274 297 319 303 263 273 272 269 236
229 236 243 245 247 247 245 244 240 238 229 226 229 191 229 244 244 243 243 236 243 244 253 256 257 257 258 275 272 276 279 261 269 271 269 255 261 244 271 275 262 266 252 276 271 269 269
233 240 247 253 257 254 251 250 248 244 237 233 221 230 216 247 240 241 249 254 255 245 246 256 253 258 285 278 245 265 251 260 254 251 250 239 265 252 236 266 287 279 266 267 276 273 260
240 248 257 260 260 259 258 255 254 247 242 234 224 218 232 248 227 239 248 247 251 253 261 252 246 254 260 265 245 220 228 247 267 265 215 228 219 244 251 267 272 269 272 280 295 296 282
253 260 265 266 266 266 264 262 257 249 243 231 224 212 225 243 246 242 231 242 256 259 259 260 250 243 252 251 248 271 232 216 253 254 244 250 234 235 238 243 254 263 273 300 274 266 281
260 267 270 272 272 272 270 269 266 255 239 228 226 206 209 235 249 235 239 249 245 247 248 262 253 234 233 230 236 237 239 228 248 248 249 248 241 234 233 247 257 263 249 237 259 294 282
269 272 277 278 279 277 278 277 274 263 241 219 229 205 205 223 266 229 232 241 233 243 258 254 244 216 210 200 222 236 238 261 248 258 247 248 243 250 230 245 252 268 298 294 296 302 295